Regional Weather Roundup
Issued by NWS

Home | Current Version | Previous Version | Text Only | Print | Product List | Glossary Off
Versions: 1 2 3 4 5 6 7 8 9 10 11 12 13 14 15 16 17 18 19 20 21 22 23 24 25 26 27 28 29 30 31 32 33 34 35 36 37 38 39 40 41 42 43 44 45 46 47 48 49 50

000
ASUS45 KBOI 052210
RWRID

IDAHO REGIONAL WEATHER ROUNDUP
NATIONAL WEATHER SERVICE BOISE ID
400 PM MDT SUN JUL 05 2015

NOTE: "FAIR" INDICATES FEW OR NO CLOUDS BELOW 12000 FEET
WITH NO SIGNIFICANT WEATHER AND/OR OBSTRUCTIONS TO VISIBILITY

IDZ012-014-052300-
SOUTHWEST IDAHO


CITY           SKY/WX    TMP DP  RH WIND       PRES   REMARKS
BOISE          CLOUDY    80  53  39 N10       29.97R
CALDWELL       CLOUDY    75  55  50 S12       29.96S
MOUNTAIN HOME  CLOUDY    86  50  28 N18       29.95R
$$

IDZ016-017-052300-
SOUTHCENTRAL IDAHO


CITY           SKY/WX    TMP DP  RH WIND       PRES   REMARKS
BURLEY         PTSUNNY   82  53  36 W9        29.98F
JEROME         PTSUNNY   83  52  34 SW14      30.00F
TWIN FALLS     CLOUDY    83  49  30 W14       29.98F
$$

IDZ019>023-052300-
SOUTHEAST IDAHO


CITY           SKY/WX    TMP DP  RH WIND       PRES   REMARKS
IDAHO FALLS    PTSUNNY   80  52  37 SW21      30.02F
POCATELLO      MOSUNNY   84  51  31 W13       30.02F
REXBURG        CLOUDY    77  53  43 SW9       30.03F
$$

IDZ006-010-011-018-031-032-052300-
CENTRAL IDAHO MOUNTAINS


CITY           SKY/WX    TMP DP  RH WIND       PRES   REMARKS
MCCALL         CLOUDY    80  44  27 S12       30.03R
HAILEY         PTSUNNY   79  52  38 SE12      30.04F
STANLEY          N/A     70  39  32 VRB3      30.16R
SALMON         CLOUDY    86  50  28 W7        29.85S
CHALLIS        CLOUDY    84  33  16 W13G21    29.98F
$$

IDZ002-004-006-007-026-052300-
NORTHERN IDAHO


CITY           SKY/WX    TMP DP  RH WIND       PRES   REMARKS
LEWISTON       SUNNY     97  43  15 N10G17    29.79F HX  93
LOWELL           N/A    100  47  16 NE5       29.75F HX  96
COEUR D`ALENE  SUNNY     84  48  28 N17G25    29.92R
MULLAN PASS    MOSUNNY   70  49  47 VRB3      30.12R
$$


USA.gov is the U.S. government's official web portal to all federal, state and local government web resources and services.